Time,TemperatureF,DewpointF,PressureIn,WindDirection,WindDirectionDegrees,WindSpeedMPH,WindSpeedGustMPH,Humidity,HourlyPrecipIn,Conditions,Clouds,dailyrainin,SoftwareType,DateUTC
2013-03-06 00:01:00,50.0,48.0,29.70,SSW,204,3.0,19.0,92,0.06,,,0.51,,2013-03-06 08:01:00,
2013-03-06 00:11:00,50.0,48.0,29.70,SSW,204,3.0,19.0,92,0.06,,,0.51,,2013-03-06 08:11:00,
2013-03-06 00:21:00,50.0,48.0,29.70,SSW,204,3.0,19.0,92,0.06,,,0.51,,2013-03-06 08:21:00,
2013-03-06 00:31:00,48.0,45.0,29.74,SW,220,3.0,12.0,88,0.03,,,0.54,,2013-03-06 08:31:00,
2013-03-06 00:41:00,48.0,45.0,29.74,SW,220,3.0,12.0,88,0.03,,,0.54,,2013-03-06 08:41:00,
2013-03-06 00:52:00,47.0,44.0,29.74,SW,231,4.0,10.0,89,0.05,,,0.56,,2013-03-06 08:52:00,
2013-03-06 01:01:00,47.0,44.0,29.74,SW,231,4.0,10.0,89,0.05,,,0.56,,2013-03-06 09:01:00,
2013-03-06 01:12:00,47.0,44.0,29.74,SW,231,4.0,10.0,89,0.05,,,0.56,,2013-03-06 09:12:00,
2013-03-06 01:21:00,48.0,45.0,29.75,SSW,213,2.0,7.0,91,0.07,,,0.58,,2013-03-06 09:21:00,
2013-03-06 01:31:00,49.0,46.0,29.74,SSW,210,1.0,10.0,90,0.00,,,0.58,,2013-03-06 09:31:00,
2013-03-06 01:42:00,49.0,46.0,29.74,SSW,210,1.0,10.0,90,0.00,,,0.58,,2013-03-06 09:42:00,
2013-03-06 01:52:00,49.0,46.0,29.75,SW,216,3.0,11.0,90,0.00,,,0.58,,2013-03-06 09:52:00,
2013-03-06 02:01:00,49.0,46.0,29.74,SW,221,2.0,15.0,90,0.00,,,0.58,,2013-03-06 10:01:00,
2013-03-06 02:11:00,49.0,46.0,29.74,SW,221,2.0,15.0,90,0.00,,,0.58,,2013-03-06 10:11:00,
2013-03-06 02:21:00,49.0,46.0,29.74,SW,221,2.0,15.0,90,0.00,,,0.58,,2013-03-06 10:21:00,
2013-03-06 02:31:00,48.0,45.0,29.76,SW,218,2.0,12.0,88,0.17,,,0.75,,2013-03-06 10:31:00,
2013-03-06 02:41:00,48.0,45.0,29.76,SW,218,2.0,12.0,88,0.17,,,0.75,,2013-03-06 10:41:00,
2013-03-06 02:52:00,48.0,45.0,29.76,SSW,212,1.0,15.0,89,0.21,,,0.79,,2013-03-06 10:52:00,
2013-03-06 03:01:00,48.0,45.0,29.75,SSW,210,1.0,9.0,90,0.22,,,0.80,,2013-03-06 11:01:00,
2013-03-06 03:11:00,48.0,45.0,29.75,SSW,210,1.0,9.0,90,0.22,,,0.80,,2013-03-06 11:11:00,
2013-03-06 03:22:00,48.0,45.0,29.75,SSW,210,1.0,9.0,90,0.22,,,0.80,,2013-03-06 11:22:00,
2013-03-06 03:31:00,47.0,44.0,29.75,SSW,197,2.0,14.0,89,0.00,,,0.80,,2013-03-06 11:31:00,
2013-03-06 03:42:00,47.0,44.0,29.75,SSW,197,2.0,14.0,89,0.00,,,0.80,,2013-03-06 11:42:00,
2013-03-06 03:52:00,47.0,44.0,29.75,SSW,197,2.0,14.0,89,0.00,,,0.80,,2013-03-06 11:52:00,
2013-03-06 04:01:00,47.0,44.0,29.77,WSW,249,1.0,5.0,90,0.06,,,0.86,,2013-03-06 12:01:00,
2013-03-06 04:11:00,47.0,44.0,29.77,WSW,249,1.0,5.0,90,0.06,,,0.86,,2013-03-06 12:11:00,
2013-03-06 04:21:00,47.0,44.0,29.78,SW,222,3.0,9.0,90,0.08,,,0.88,,2013-03-06 12:21:00,
2013-03-06 04:32:00,47.0,44.0,29.78,SW,222,3.0,9.0,90,0.08,,,0.88,,2013-03-06 12:32:00,
2013-03-06 04:42:00,47.0,44.0,29.78,SW,222,3.0,9.0,90,0.08,,,0.88,,2013-03-06 12:42:00,
2013-03-06 04:52:00,46.0,43.0,29.79,SSW,209,3.0,9.0,89,0.02,,,0.90,,2013-03-06 12:52:00,
2013-03-06 05:01:00,46.0,43.0,29.80,WSW,249,1.0,11.0,90,0.02,,,0.90,,2013-03-06 13:01:00,
2013-03-06 05:11:00,46.0,43.0,29.80,WSW,249,1.0,11.0,90,0.02,,,0.90,,2013-03-06 13:11:00,
2013-03-06 05:21:00,46.0,43.0,29.81,SW,232,0.0,5.0,90,0.03,,,0.91,,2013-03-06 13:21:00,
2013-03-06 05:31:00,46.0,43.0,29.83,SW,231,1.0,7.0,90,0.00,,,0.91,,2013-03-06 13:31:00,
2013-03-06 05:41:00,46.0,43.0,29.83,SW,231,1.0,7.0,90,0.00,,,0.91,,2013-03-06 13:41:00,
2013-03-06 05:52:00,46.0,43.0,29.83,SW,231,1.0,7.0,90,0.00,,,0.91,,2013-03-06 13:52:00,
2013-03-06 06:01:00,45.0,42.0,29.84,SSW,196,0.0,6.0,90,0.02,,,0.93,,2013-03-06 14:01:00,
2013-03-06 06:11:00,45.0,42.0,29.84,SSW,196,0.0,6.0,90,0.02,,,0.93,,2013-03-06 14:11:00,
2013-03-06 06:21:00,45.0,42.0,29.85,SW,214,0.0,7.0,90,0.03,,,0.94,,2013-03-06 14:21:00,
2013-03-06 06:32:00,45.0,42.0,29.86,SSW,196,0.0,6.0,90,0.00,,,0.94,,2013-03-06 14:32:00,
2013-03-06 06:41:00,45.0,42.0,29.86,SSW,196,0.0,6.0,90,0.00,,,0.94,,2013-03-06 14:41:00,
2013-03-06 06:52:00,45.0,42.0,29.85,SSW,206,0.0,3.0,90,0.00,,,0.94,,2013-03-06 14:52:00,
2013-03-06 07:01:00,44.0,41.0,29.87,South,174,0.0,3.0,90,0.00,,,0.94,,2013-03-06 15:01:00,
2013-03-06 07:11:00,44.0,41.0,29.87,South,174,0.0,3.0,90,0.00,,,0.94,,2013-03-06 15:11:00,
2013-03-06 07:21:00,44.0,41.0,29.87,South,174,0.0,2.0,90,0.00,,,0.94,,2013-03-06 15:21:00,
2013-03-06 07:32:00,44.0,42.0,29.89,South,189,0.0,1.0,91,0.00,,,0.94,,2013-03-06 15:32:00,
2013-03-06 07:41:00,44.0,42.0,29.89,South,189,0.0,1.0,91,0.00,,,0.94,,2013-03-06 15:41:00,
2013-03-06 07:51:00,44.0,42.0,29.89,South,189,0.0,1.0,91,0.00,,,0.94,,2013-03-06 15:51:00,
2013-03-06 08:01:00,44.0,42.0,29.89,South,189,0.0,1.0,91,0.00,,,0.94,,2013-03-06 16:01:00,
2013-03-06 08:11:00,44.0,42.0,29.89,South,189,0.0,1.0,91,0.00,,,0.94,,2013-03-06 16:11:00,
2013-03-06 08:21:00,46.0,44.0,29.91,South,188,0.0,1.0,92,0.00,,,0.94,,2013-03-06 16:21:00,
2013-03-06 08:32:00,46.0,44.0,29.92,South,173,0.0,3.0,92,0.00,,,0.94,,2013-03-06 16:32:00,
2013-03-06 08:42:00,46.0,44.0,29.92,South,173,0.0,3.0,92,0.00,,,0.94,,2013-03-06 16:42:00,
2013-03-06 08:52:00,46.0,44.0,29.92,South,173,0.0,3.0,92,0.00,,,0.94,,2013-03-06 16:52:00,
2013-03-06 09:01:00,47.0,45.0,29.92,South,179,0.0,2.0,92,0.00,,,0.94,,2013-03-06 17:01:00,
2013-03-06 09:11:00,47.0,45.0,29.92,South,179,0.0,2.0,92,0.00,,,0.94,,2013-03-06 17:11:00,
2013-03-06 09:21:00,47.0,45.0,29.92,South,179,0.0,2.0,92,0.00,,,0.94,,2013-03-06 17:21:00,
2013-03-06 09:31:00,48.0,45.0,29.93,SW,225,1.0,4.0,89,0.00,,,0.94,,2013-03-06 17:31:00,
2013-03-06 09:41:00,48.0,45.0,29.93,SW,225,1.0,4.0,89,0.00,,,0.94,,2013-03-06 17:41:00,
2013-03-06 09:52:00,50.0,47.0,29.94,SW,232,1.0,7.0,88,0.00,,,0.94,,2013-03-06 17:52:00,
2013-03-06 10:01:00,51.0,45.0,29.95,WSW,251,1.0,5.0,79,0.00,,,0.94,,2013-03-06 18:01:00,
2013-03-06 10:28:00,51.0,45.0,29.95,WSW,251,1.0,5.0,79,0.00,,,0.94,,2013-03-06 18:28:00,
2013-03-06 10:41:00,51.0,43.0,29.98,WSW,253,1.0,9.0,74,0.01,,,0.95,,2013-03-06 18:41:00,
2013-03-06 10:52:00,48.0,41.0,29.97,WSW,243,0.0,5.0,78,0.02,,,0.96,,2013-03-06 18:52:00,
2013-03-06 11:02:00,47.0,41.0,29.98,SSW,207,1.0,5.0,81,0.02,,,0.96,,2013-03-06 19:02:00,
2013-03-06 11:11:00,47.0,41.0,29.98,SSW,207,1.0,5.0,81,0.02,,,0.96,,2013-03-06 19:11:00,
2013-03-06 11:21:00,47.0,41.0,29.98,South,180,1.0,5.0,80,0.02,,,0.96,,2013-03-06 19:21:00,
2013-03-06 11:31:00,47.0,42.0,29.98,SE,144,0.0,3.0,83,0.00,,,0.96,,2013-03-06 19:31:00,
2013-03-06 11:40:00,50.0,44.0,29.98,SW,224,0.0,5.0,80,0.00,,,0.96,,2013-03-06 19:40:00,
2013-03-06 11:42:00,47.0,42.0,29.98,SE,144,0.0,3.0,83,0.00,,,0.96,,2013-03-06 19:42:00,
2013-03-06 11:52:00,47.0,42.0,29.98,SE,144,0.0,3.0,83,0.00,,,0.96,,2013-03-06 19:52:00,
2013-03-06 12:01:00,50.0,44.0,29.98,SW,224,0.0,5.0,80,0.00,,,0.96,,2013-03-06 20:01:00,
2013-03-06 12:11:00,50.0,44.0,29.98,SW,224,0.0,5.0,80,0.00,,,0.96,,2013-03-06 20:11:00,
2013-03-06 12:21:00,50.0,44.0,29.98,SW,224,0.0,5.0,80,0.00,,,0.96,,2013-03-06 20:21:00,
2013-03-06 12:32:00,50.0,44.0,29.98,SW,224,0.0,5.0,80,0.00,,,0.96,,2013-03-06 20:32:00,
2013-03-06 13:52:00,53.0,42.0,29.97,WSW,245,2.0,8.0,65,0.00,,,0.96,,2013-03-06 21:52:00,
2013-03-06 14:01:00,53.0,42.0,29.97,WSW,245,2.0,8.0,65,0.00,,,0.96,,2013-03-06 22:01:00,
2013-03-06 14:11:00,53.0,42.0,29.97,WSW,245,2.0,8.0,65,0.00,,,0.96,,2013-03-06 22:11:00,
2013-03-06 14:21:00,55.0,42.0,29.97,SSW,206,1.0,7.0,61,0.00,,,0.96,,2013-03-06 22:21:00,
2013-03-06 14:31:00,55.0,42.0,29.96,WNW,289,0.0,5.0,61,0.00,,,0.96,,2013-03-06 22:31:00,
2013-03-06 14:42:00,55.0,42.0,29.96,WNW,289,0.0,5.0,61,0.00,,,0.96,,2013-03-06 22:42:00,
2013-03-06 14:52:00,55.0,42.0,29.96,WNW,289,0.0,5.0,61,0.00,,,0.96,,2013-03-06 22:52:00,
2013-03-06 15:01:00,54.0,40.0,29.97,WSW,242,1.0,7.0,58,0.00,,,0.96,,2013-03-06 23:01:00,
2013-03-06 15:11:00,54.0,40.0,29.97,WSW,242,1.0,7.0,58,0.00,,,0.96,,2013-03-06 23:11:00,
2013-03-06 15:21:00,54.0,40.0,29.96,West,270,1.0,5.0,59,0.00,,,0.96,,2013-03-06 23:21:00,
2013-03-06 15:31:00,55.0,42.0,29.97,West,260,0.0,5.0,61,0.00,,,0.96,,2013-03-06 23:31:00,
2013-03-06 15:41:00,55.0,42.0,29.97,West,260,0.0,5.0,61,0.00,,,0.96,,2013-03-06 23:41:00,
2013-03-06 15:52:00,55.0,42.0,29.97,West,260,0.0,5.0,61,0.00,,,0.96,,2013-03-06 23:52:00,
2013-03-06 16:01:00,57.0,40.0,29.97,SW,229,1.0,5.0,53,0.00,,,0.96,,2013-03-07 00:01:00,
2013-03-06 16:11:00,57.0,40.0,29.97,SW,229,1.0,5.0,53,0.00,,,0.96,,2013-03-07 00:11:00,
2013-03-06 16:21:00,56.0,39.0,29.97,WSW,256,1.0,7.0,53,0.00,,,0.96,,2013-03-07 00:21:00,
2013-03-06 16:32:00,55.0,39.0,29.96,SSW,211,0.0,4.0,54,0.00,,,0.96,,2013-03-07 00:32:00,
2013-03-06 16:41:00,55.0,39.0,29.96,SSW,211,0.0,4.0,54,0.00,,,0.96,,2013-03-07 00:41:00,
2013-03-06 16:51:00,54.0,39.0,29.96,WSW,237,0.0,6.0,56,0.00,,,0.96,,2013-03-07 00:51:00,
2013-03-06 17:01:00,54.0,39.0,29.96,WSW,237,0.0,6.0,56,0.00,,,0.96,,2013-03-07 01:01:00,
2013-03-06 17:11:00,54.0,39.0,29.96,WSW,237,0.0,6.0,56,0.00,,,0.96,,2013-03-07 01:11:00,
2013-03-06 17:21:00,54.0,39.0,29.96,WSW,237,0.0,6.0,56,0.00,,,0.96,,2013-03-07 01:21:00,
2013-03-06 17:31:00,54.0,39.0,29.96,WSW,254,0.0,3.0,57,0.00,,,0.96,,2013-03-07 01:31:00,
2013-03-06 17:42:00,54.0,39.0,29.96,WSW,254,0.0,3.0,57,0.00,,,0.96,,2013-03-07 01:42:00,
2013-03-06 17:52:00,53.0,39.0,29.96,SW,226,0.0,1.0,60,0.00,,,0.96,,2013-03-07 01:52:00,
2013-03-06 18:01:00,52.0,39.0,29.96,WSW,248,0.0,0.0,62,0.00,,,0.96,,2013-03-07 02:01:00,
2013-03-06 18:11:00,52.0,39.0,29.96,WSW,248,0.0,0.0,62,0.00,,,0.96,,2013-03-07 02:11:00,
2013-03-06 18:21:00,52.0,39.0,29.96,WSW,248,0.0,0.0,62,0.00,,,0.96,,2013-03-07 02:21:00,
2013-03-06 18:31:00,50.0,39.0,29.96,WSW,248,0.0,0.0,65,0.00,,,0.96,,2013-03-07 02:31:00,
2013-03-06 18:41:00,50.0,39.0,29.96,WSW,248,0.0,0.0,65,0.00,,,0.96,,2013-03-07 02:41:00,
2013-03-06 18:51:00,50.0,39.0,29.96,WSW,248,0.0,0.0,65,0.00,,,0.96,,2013-03-07 02:51:00,
2013-03-06 19:01:00,47.0,39.0,29.96,WSW,248,0.0,0.0,75,0.00,,,0.95,,2013-03-07 03:01:00,
2013-03-06 19:11:00,46.0,39.0,29.96,WSW,248,0.0,0.0,77,0.00,,,0.93,,2013-03-07 03:11:00,
2013-03-06 19:21:00,46.0,39.0,29.96,WSW,248,0.0,0.0,77,0.00,,,0.93,,2013-03-07 03:21:00,
2013-03-06 19:31:00,45.0,39.0,29.96,WSW,248,0.0,0.0,79,0.00,,,0.91,,2013-03-07 03:31:00,
2013-03-06 19:41:00,45.0,39.0,29.96,WSW,248,0.0,0.0,79,0.00,,,0.91,,2013-03-07 03:41:00,
2013-03-06 19:51:00,44.0,38.0,29.96,WSW,248,0.0,0.0,80,0.00,,,0.91,,2013-03-07 03:51:00,
2013-03-06 20:01:00,43.0,38.0,29.96,WSW,248,0.0,0.0,83,0.00,,,0.90,,2013-03-07 04:01:00,
2013-03-06 20:11:00,43.0,38.0,29.96,WSW,248,0.0,0.0,83,0.00,,,0.90,,2013-03-07 04:11:00,
2013-03-06 20:21:00,43.0,38.0,29.96,WSW,248,0.0,0.0,84,0.00,,,0.89,,2013-03-07 04:21:00,
2013-03-06 20:31:00,42.0,38.0,29.96,WSW,248,0.0,0.0,86,0.00,,,0.81,,2013-03-07 04:31:00,
2013-03-06 20:41:00,42.0,38.0,29.96,WSW,248,0.0,0.0,86,0.00,,,0.81,,2013-03-07 04:41:00,
2013-03-06 20:51:00,42.0,38.0,29.96,WSW,248,0.0,0.0,86,0.00,,,0.79,,2013-03-07 04:51:00,
2013-03-06 21:01:00,41.0,37.0,29.96,WSW,248,0.0,0.0,85,0.00,,,0.74,,2013-03-07 05:01:00,
2013-03-06 21:12:00,41.0,37.0,29.96,WSW,248,0.0,0.0,85,0.00,,,0.74,,2013-03-07 05:12:00,
2013-03-06 21:22:00,41.0,37.0,29.96,WSW,248,0.0,0.0,87,0.00,,,0.70,,2013-03-07 05:22:00,
2013-03-06 21:31:00,40.0,37.0,29.95,WSW,248,0.0,0.0,89,0.00,,,0.66,,2013-03-07 05:31:00,
2013-03-06 21:41:00,40.0,37.0,29.95,WSW,248,0.0,0.0,89,0.00,,,0.66,,2013-03-07 05:41:00,
2013-03-06 21:52:00,40.0,37.0,29.96,WSW,248,0.0,0.0,88,0.00,,,0.66,,2013-03-07 05:52:00,
2013-03-06 22:01:00,39.0,36.0,29.96,WSW,248,0.0,0.0,88,0.00,,,0.63,,2013-03-07 06:01:00,
2013-03-06 22:11:00,39.0,36.0,29.96,WSW,248,0.0,0.0,88,0.00,,,0.63,,2013-03-07 06:11:00,
2013-03-06 22:21:00,39.0,36.0,29.96,WSW,248,0.0,0.0,88,0.00,,,0.63,,2013-03-07 06:21:00,
2013-03-06 22:31:00,39.0,36.0,29.95,WSW,248,0.0,0.0,89,0.00,,,0.58,,2013-03-07 06:31:00,
2013-03-06 22:41:00,39.0,36.0,29.95,WSW,248,0.0,0.0,89,0.00,,,0.58,,2013-03-07 06:41:00,
2013-03-06 22:51:00,39.0,36.0,29.95,WSW,248,0.0,0.0,89,0.00,,,0.58,,2013-03-07 06:51:00,
2013-03-06 23:01:00,38.0,35.0,29.95,WSW,248,0.0,0.0,90,0.00,,,0.55,,2013-03-07 07:01:00,
2013-03-06 23:11:00,38.0,35.0,29.95,WSW,248,0.0,0.0,90,0.00,,,0.55,,2013-03-07 07:11:00,
2013-03-06 23:21:00,38.0,35.0,29.94,WSW,248,0.0,0.0,90,0.00,,,0.51,,2013-03-07 07:21:00,
2013-03-06 23:31:00,38.0,35.0,29.94,WSW,248,0.0,0.0,90,0.00,,,0.51,,2013-03-07 07:31:00,
2013-03-06 23:41:00,38.0,35.0,29.94,WSW,248,0.0,0.0,90,0.00,,,0.51,,2013-03-07 07:41:00,
2013-03-06 23:52:00,37.0,35.0,29.94,WSW,248,0.0,0.0,91,0.00,,,0.45,,2013-03-07 07:52:00,